User: anonymous   Login
Location: Unspecified
(0.0000°N, 0.0000°E)
Time: 02:58:56
(UTC+00:00)
Language:

CUBEBUG 1 - Orbit

View from above orbital plane
View from above orbital plane
View from above satellite
View from above satellite

Ground track
Ground track

The orbit data is extracted from the following two-line orbital elements,

1 39153U 13018D   24109.87108445  .00009267  00000-0  10457-2 0  9990
2 39153  98.0652 234.3972 0014253 222.1641 137.8478 14.86713151593390
Epoch (UTC): 18 April 2024 20:54:21
Eccentricity: 0.0014253
inclination: 98.0652°
perigee height: 598 km
apogee height: 618 km
right ascension of ascending node: 234.3972°
argument of perigee: 222.1641°
revolutions per day: 14.86713151
mean anomaly at epoch: 137.8478°
orbit number at epoch: 59339

The dashed part of the orbit path shows where the satellite is in the earth's shadow,  

DLR